Date,TemperatureHighF,TemperatureAvgF,TemperatureLowF,DewpointHighF,DewpointAvgF,DewpointLowF,HumidityHigh,HumidityAvg,HumidityLow,PressureMaxIn,PressureMinIn,WindSpeedMaxMPH,WindSpeedAvgMPH,GustSpeedMaxMPH,PrecipitationSumIn
2013-1-1,45.7,38.6,32.2,31.8,28.7,20.8,85,68,50,30.41,30.35,6,1,8,0.00
2013-1-2,52.6,42.5,36.2,35.4,26.1,18.3,73,53,35,30.39,30.29,6,1,7,0.00
2013-1-3,52.2,42.4,36.3,35.4,29.7,23.1,74,61,44,30.40,30.29,9,1,12,0.00
2013-1-4,53.5,44.8,39.6,36.3,30.2,22.2,76,57,39,30.42,30.32,8,2,11,0.00
2013-1-5,51.6,43.7,40.1,38.5,33.9,29.6,88,69,44,30.40,30.20,7,2,8,0.00
2013-1-6,44.3,39.7,36.5,40.5,37.6,34.3,97,92,75,30.31,30.19,4,1,5,0.07
2013-1-7,52.0,43.7,36.5,40.8,35.1,28.6,92,72,55,30.37,30.26,7,2,10,0.00
2013-1-8,52.9,43.1,35.9,43.6,39.2,34.9,97,86,68,30.37,30.27,9,1,11,0.00
2013-1-9,49.8,43.5,33.2,41.1,37.7,31.9,96,81,61,30.30,30.01,11,3,11,0.63
2013-1-10,40.3,33.6,29.5,32.5,29.6,26.7,96,86,65,30.28,30.13,5,1,9,0.01
2013-1-11,41.3,32.6,26.6,30.4,25.4,18.9,90,75,50,30.37,30.28,6,2,9,0.00
2013-1-12,41.2,32.3,25.6,20.9,17.0,12.2,70,53,33,30.38,30.28,8,2,10,0.00
2013-1-13,40.5,32.0,25.0,21.6,13.4,3.0,73,48,26,30.40,30.31,12,4,15,0.00
2013-1-14,44.3,34.9,29.1,20.2,11.5,2.7,59,39,24,30.53,30.34,11,3,18,0.00
2013-1-15,45.4,37.2,30.6,29.3,24.1,18.4,73,59,43,30.63,30.52,3,0,6,0.00
2013-1-16,54.8,45.4,38.2,31.7,24.8,16.6,63,45,25,30.58,30.40,3,1,5,0.00
2013-1-17,61.6,50.5,41.9,34.7,23.1,10.1,57,35,23,30.40,30.30,4,0,6,0.00
2013-1-18,64.2,51.5,43.9,32.6,24.9,15.2,53,37,20,30.37,30.27,5,2,7,0.00
2013-1-19,63.1,51.8,43.8,34.0,26.0,17.0,50,37,22,30.39,30.27,7,2,9,0.00
2013-1-20,62.9,50.6,43.3,34.9,25.3,15.7,62,39,21,30.36,30.25,9,3,12,0.00
2013-1-21,62.6,52.4,44.1,33.0,24.6,13.3,57,34,22,30.31,30.24,10,2,11,0.00
2013-1-22,66.3,53.7,44.9,38.8,24.3,13.5,56,33,18,30.27,30.16,11,4,14,0.00
2013-1-23,62.3,54.9,47.3,44.9,27.5,14.5,89,40,20,30.22,30.11,10,4,13,0.04
2013-1-24,56.3,52.1,49.8,49.6,46.1,41.0,96,81,68,30.30,30.16,10,3,12,0.05
2013-1-25,60.4,52.6,49.2,56.0,50.8,48.5,100,94,75,30.30,30.13,7,2,10,0.15
2013-1-26,50.4,46.0,37.5,50.2,44.6,35.2,100,95,74,30.14,30.04,5,2,12,0.01
2013-1-27,46.8,38.7,34.9,38.6,34.4,28.4,99,85,59,30.27,30.11,4,1,12,0.11
2013-1-28,48.6,39.5,31.8,32.9,28.9,23.5,81,66,50,30.39,30.25,10,3,13,0.00
2013-1-29,53.9,44.5,36.2,38.0,33.5,29.0,80,66,46,30.46,30.37,6,2,14,0.00
2013-1-30,57.3,49.5,45.4,42.1,37.8,33.0,83,65,50,30.45,30.38,7,2,13,0.00
2013-1-31,61.0,50.5,42.5,43.2,38.3,32.6,82,64,38,30.43,30.31,7,2,9,0.00
2013-2-1,65.3,53.4,45.8,41.7,36.1,29.5,69,53,31,30.35,30.25,10,4,12,0.00
2013-2-2,62.6,53.3,47.9,43.8,36.1,28.8,67,53,28,30.40,30.31,8,2,10,0.00
2013-2-3,60.1,50.6,43.3,42.5,34.0,24.5,77,54,37,30.33,30.22,6,2,10,0.00
2013-2-4,64.2,52.2,44.6,42.9,32.7,18.7,74,49,28,30.28,30.15,8,2,10,0.00
2013-2-5,55.3,46.5,39.3,44.0,37.8,30.5,93,73,53,30.24,30.13,9,2,12,0.00
2013-2-6,55.3,44.6,36.0,37.9,31.3,24.7,91,62,36,30.29,30.22,8,1,10,0.00
2013-2-7,44.5,39.5,34.3,41.6,36.3,31.9,95,88,79,30.26,30.11,8,2,11,0.06
2013-2-8,48.9,38.8,31.2,32.4,25.3,17.8,90,61,33,30.12,30.02,8,3,14,0.00
2013-2-9,48.6,40.3,32.8,29.0,23.3,17.3,66,51,38,30.22,30.06,7,2,10,0.00
2013-2-10,52.6,43.4,34.3,34.8,24.2,16.1,64,48,27,30.25,30.13,6,2,11,0.00
2013-2-11,56.2,45.6,38.0,30.0,22.1,13.4,62,40,22,30.36,30.19,5,2,11,0.00
2013-2-12,55.1,45.4,37.0,35.4,30.8,22.8,76,57,44,30.49,30.36,4,0,9,0.00
2013-2-13,59.0,47.6,38.6,39.2,35.0,30.6,77,62,44,30.46,30.33,6,0,9,0.00
2013-2-14,65.0,54.7,44.6,42.8,34.1,22.0,64,47,25,30.37,30.28,9,2,10,0.00
2013-2-15,65.8,56.0,48.5,39.9,30.8,20.7,60,39,25,30.39,30.32,6,2,9,0.00
2013-2-16,66.6,54.9,47.7,38.9,30.9,20.9,67,41,23,30.37,30.13,10,3,12,0.00
2013-2-17,62.0,51.1,42.9,39.4,34.9,24.9,69,55,29,30.13,30.06,10,3,11,0.00
2013-2-18,59.2,46.5,38.3,41.1,35.6,31.3,85,67,44,30.11,30.00,10,4,14,0.00
2013-2-19,38.3,34.1,30.0,35.6,32.5,29.0,100,94,85,30.02,29.87,6,3,14,0.40
2013-2-20,52.5,39.7,28.7,35.7,30.0,25.6,96,71,38,30.15,29.95,6,2,12,0.09
2013-2-21,51.6,42.0,33.2,36.7,30.5,24.9,90,66,41,30.27,30.13,6,2,14,0.00
2013-2-22,54.2,45.2,36.3,36.1,30.6,24.0,70,57,41,30.36,30.26,6,2,14,0.00
2013-2-23,52.8,44.0,37.2,38.8,28.1,12.3,92,58,28,30.33,30.22,6,4,15,0.00
2013-2-24,59.9,46.4,35.0,28.1,19.7,10.4,60,36,17,30.35,30.26,6,2,12,0.00
2013-2-25,57.3,46.0,37.8,35.4,28.0,24.5,62,50,33,30.40,30.30,10,4,13,0.00
2013-2-26,63.5,50.8,39.5,28.3,16.1,4.8,62,28,14,30.32,30.23,6,3,15,0.00
2013-2-27,63.5,51.1,42.6,29.5,20.9,9.8,47,31,22,30.47,30.32,7,3,15,0.00
2013-2-28,65.2,54.0,44.8,40.0,32.2,23.6,66,45,26,30.54,30.45,7,2,11,0.00
2013-3-1,70.1,57.2,47.0,45.8,41.2,36.5,68,56,32,30.53,30.35,7,2,10,0.00
2013-3-2,69.6,59.0,52.0,42.0,38.4,33.2,62,48,28,30.36,30.15,9,2,10,0.00
2013-3-3,60.7,51.5,45.4,48.2,44.3,41.5,91,77,58,30.17,30.11,8,3,10,0.02
2013-3-4,62.6,51.2,42.2,45.3,41.7,35.7,89,72,39,30.22,30.11,8,2,10,0.00
2013-3-5,57.3,48.5,42.2,44.5,39.5,35.0,88,72,47,30.15,29.93,8,2,11,0.00
2013-3-6,47.7,41.4,38.2,42.0,37.7,33.8,96,87,68,30.19,29.95,12,3,23,0.64
2013-3-7,51.0,42.0,35.6,38.8,35.2,31.5,90,78,52,30.13,29.98,6,2,13,0.00
2013-3-8,56.7,46.1,36.0,39.4,35.0,31.0,86,67,44,30.11,29.92,12,3,13,0.01
2013-3-9,61.5,49.3,36.9,38.7,31.4,17.5,94,55,24,30.42,30.11,8,3,15,0.00
2013-3-10,61.8,50.8,40.8,41.8,32.1,14.7,78,50,27,30.47,30.36,8,2,15,0.00
2013-3-11,67.4,54.5,43.6,46.3,40.3,35.1,82,60,40,30.38,30.22,6,1,9,0.00
2013-3-12,71.5,58.6,47.9,47.9,43.8,38.5,76,59,39,30.27,30.18,7,2,9,0.00
2013-3-13,75.6,62.9,52.2,47.6,42.1,36.3,69,48,26,30.28,30.19,10,4,12,0.00
2013-3-14,77.0,63.7,56.6,48.9,41.9,32.5,65,46,28,30.24,30.18,10,3,12,0.00
2013-3-15,72.7,60.8,52.9,45.7,41.5,32.1,65,50,24,30.20,30.12,7,1,7,0.00
2013-3-16,69.8,58.7,48.5,47.7,37.2,24.9,69,46,24,30.16,30.10,5,1,10,0.00
2013-3-17,65.5,54.4,45.2,42.2,34.5,27.8,63,48,35,30.20,30.13,5,1,10,0.00
2013-3-18,67.9,57.0,47.3,41.5,35.6,27.8,61,46,27,30.20,30.13,5,1,8,0.00
2013-3-19,66.1,54.8,46.5,48.2,41.3,34.2,96,63,34,30.23,30.15,7,2,10,0.26
2013-3-20,52.5,48.9,46.2,52.2,48.0,45.1,100,97,94,30.23,30.17,10,2,13,1.09
2013-3-21,58.9,50.4,45.7,49.5,43.7,33.1,100,80,50,30.20,30.11,5,1,12,0.00
2013-3-22,58.4,49.8,41.8,40.7,23.8,8.3,82,38,18,30.18,30.10,8,3,16,0.00
2013-3-23,62.0,51.1,41.8,35.6,25.6,13.9,57,38,22,30.22,30.15,5,2,16,0.00
2013-3-24,68.1,54.9,44.3,40.4,32.8,26.7,60,44,27,30.20,30.07,5,2,9,0.00
2013-3-25,67.6,55.6,47.0,44.6,39.6,35.0,74,56,35,30.09,30.00,10,3,12,0.00
2013-3-26,66.3,54.2,43.1,44.7,40.6,37.7,85,62,39,30.08,29.99,10,1,10,0.00
2013-3-27,67.4,55.2,47.0,48.2,43.3,39.1,82,66,41,30.10,30.02,6,2,7,0.00
2013-3-28,59.8,53.2,48.8,50.6,45.6,43.3,88,76,56,30.22,30.09,7,1,10,0.01
2013-3-29,73.3,60.6,48.8,45.9,41.8,38.2,76,52,30,30.21,30.13,9,3,13,0.00
2013-3-30,72.0,61.9,53.9,52.9,46.0,41.6,74,57,40,30.14,30.05,6,2,10,0.00
2013-3-31,60.1,52.0,46.7,54.1,47.6,42.9,96,86,62,30.19,30.07,7,1,10,0.82
2013-4-1,62.4,51.0,44.1,51.0,45.8,42.9,96,83,56,30.27,30.16,6,2,6,0.01
2013-4-2,65.6,57.4,43.2,48.0,45.1,39.0,85,65,46,30.27,30.19,4,1,6,0.00
2013-4-3,72.1,58.3,48.2,55.5,48.6,43.4,87,72,44,30.25,30.08,5,1,7,0.00
2013-4-4,56.2,51.9,45.7,54.0,49.7,43.1,96,92,77,30.23,30.05,13,1,21,0.55
2013-4-5,61.2,52.6,48.0,54.0,48.2,45.6,97,86,61,30.26,30.21,1,0,9,0.02
2013-4-6,62.7,52.3,47.0,51.4,47.8,45.6,95,85,57,30.29,30.21,3,0,6,0.00
2013-4-7,65.3,53.9,43.9,51.0,47.6,41.7,95,81,55,30.23,29.86,4,1,10,0.07
2013-4-8,60.7,49.5,40.5,43.5,34.6,22.9,95,63,26,30.11,29.81,8,2,18,0.32
2013-4-9,71.6,55.2,41.2,37.8,29.7,18.9,58,40,14,30.22,30.10,7,2,18,0.00
2013-4-10,77.0,65.4,53.6,50.6,37.4,23.3,60,36,27,30.27,30.04,5,1,13,0.00
2013-4-11,70.6,60.6,50.4,51.4,43.7,32.6,86,57,26,30.06,29.91,8,2,11,0.00
2013-4-12,74.7,63.1,51.6,49.4,37.7,31.4,57,40,23,29.97,29.89,8,2,11,0.00
2013-4-13,73.9,62.2,52.5,49.3,41.8,37.1,59,48,30,29.95,29.87,7,2,12,0.00
2013-4-14,66.8,56.7,48.5,43.3,35.6,24.5,71,47,22,29.95,29.84,3,0,10,0.00
2013-4-15,57.0,46.7,39.5,41.9,36.6,27.4,92,70,35,30.00,29.87,4,1,15,0.00
2013-4-16,61.8,48.1,38.0,34.8,24.3,13.0,83,44,16,30.25,30.00,7,2,17,0.00
2013-4-17,66.9,52.1,39.6,27.2,19.7,12.7,47,29,13,30.35,30.25,7,2,17,0.00
2013-4-18,69.8,57.5,44.6,38.8,26.6,15.1,52,31,22,30.37,30.29,7,2,12,0.00
2013-4-19,75.4,61.8,50.4,42.2,37.1,30.0,55,41,26,30.34,30.16,4,1,9,0.00
2013-4-20,75.3,63.6,52.8,44.5,38.1,28.8,61,41,25,30.19,30.07,7,2,11,0.00
2013-4-21,78.3,67.1,55.4,47.0,39.9,32.2,54,38,23,30.12,30.04,4,1,7,0.00
2013-4-22,81.6,69.0,57.6,50.9,40.2,26.5,53,37,22,30.05,29.93,7,2,14,0.00
2013-4-23,81.4,68.4,57.2,40.5,26.5,14.4,38,21,12,29.99,29.92,12,4,20,0.00
2013-4-24,84.9,69.8,56.2,41.6,28.1,18.0,49,24,9,29.94,29.84,10,4,19,0.00
2013-4-25,75.3,61.6,47.4,50.7,43.2,32.9,74,52,31,30.16,29.91,3,0,13,0.00
2013-4-26,79.6,65.6,53.2,53.1,46.3,39.0,75,51,30,30.27,30.15,6,1,10,0.00
2013-4-27,85.3,70.7,58.7,54.0,47.6,40.9,65,45,28,30.27,30.11,3,0,9,0.00
2013-4-28,85.9,72.2,59.8,52.3,43.2,30.7,50,36,24,30.11,29.95,5,2,10,0.00
2013-4-29,84.1,73.1,62.0,54.8,46.5,40.2,61,41,23,29.95,29.81,4,1,9,0.00
2013-4-30,79.2,68.7,57.2,51.5,37.5,8.1,63,36,10,29.93,29.79,11,2,16,0.00
2013-5-1,86.7,72.2,60.5,37.0,15.4,5.4,18,11,8,30.18,29.93,13,6,23,0.00
2013-5-2,89.5,74.8,64.3,41.6,25.4,5.3,33,17,9,30.23,30.15,12,4,19,0.00
2013-5-3,86.5,73.3,60.5,47.1,39.7,35.4,44,31,17,30.15,29.87,7,2,13,0.00
2013-5-4,87.8,75.2,65.3,41.9,32.1,18.7,39,21,13,29.87,29.59,9,3,15,0.00
2013-5-5,72.5,61.3,49.8,47.6,42.4,29.7,74,52,27,29.90,29.58,8,1,9,0.00
2013-5-6,66.0,55.0,49.1,54.3,48.0,42.8,96,78,55,30.06,29.89,5,2,9,0.65
2013-5-7,60.2,54.0,51.4,56.0,51.3,48.8,95,90,80,30.13,30.02,5,1,6,0.05
2013-5-8,68.1,58.7,51.9,57.0,51.2,48.0,96,78,52,30.20,30.11,5,1,6,0.04
2013-5-9,77.2,64.3,52.0,56.8,52.6,49.4,91,68,44,30.19,30.12,3,0,6,0.00
2013-5-10,84.7,70.1,57.2,61.1,55.8,52.2,86,63,39,30.21,30.13,8,1,9,0.00
2013-5-11,91.0,76.2,62.9,61.8,56.2,51.1,74,52,28,30.17,30.11,4,1,7,0.00
2013-5-12,92.9,77.9,65.2,57.8,48.7,37.4,67,40,16,30.17,30.06,8,3,11,0.00
2013-5-13,93.2,77.7,63.7,48.8,42.8,34.3,45,31,13,30.11,29.96,8,2,11,0.00
2013-5-14,88.2,74.5,64.0,54.4,46.0,35.9,54,37,27,29.98,29.92,8,2,11,0.00
2013-5-15,80.1,67.2,53.3,50.4,46.3,41.9,70,49,28,30.06,29.94,8,1,10,0.00
2013-5-16,68.6,58.4,50.4,53.7,47.9,42.5,89,69,49,30.08,29.98,4,1,12,0.00
2013-5-17,73.5,59.2,45.1,48.9,43.2,37.6,91,59,34,30.13,30.02,3,1,7,0.00
2013-5-18,79.6,64.1,50.4,46.2,39.9,36.2,67,44,23,30.19,30.11,6,2,9,0.00
2013-5-19,80.9,68.6,53.8,46.9,40.7,27.1,63,39,22,30.17,30.04,5,2,15,0.00
2013-5-20,89.0,74.5,62.7,43.2,33.7,24.7,37,23,14,30.06,29.97,8,2,15,0.00
2013-5-21,81.8,68.2,54.1,46.1,38.4,30.3,64,35,16,29.98,29.90,8,2,12,0.00
2013-5-22,69.4,58.6,47.9,41.1,24.7,14.9,62,29,16,30.02,29.96,4,1,12,0.00
2013-5-23,70.9,57.0,41.8,40.2,30.6,20.6,56,38,25,30.07,29.95,5,2,8,0.00
2013-5-24,78.3,62.6,46.2,40.4,34.3,28.0,60,37,20,30.06,29.98,4,1,10,0.00
2013-5-25,79.0,63.4,50.2,42.9,37.5,31.1,63,41,18,30.05,29.98,7,2,10,0.00
2013-5-26,76.1,61.2,46.1,50.2,44.6,40.1,86,57,32,30.16,30.04,4,1,6,0.00
2013-5-27,61.3,55.5,48.9,52.8,47.9,42.8,92,76,62,30.19,30.08,6,1,7,0.13
2013-5-28,75.1,61.0,51.6,57.2,51.3,46.8,96,74,43,30.08,29.98,2,0,6,0.13
2013-5-29,77.0,64.0,53.3,57.1,50.5,39.6,95,65,36,30.02,29.93,4,0,7,0.01
2013-5-30,82.6,68.3,54.4,51.3,44.2,28.2,74,46,22,30.04,29.97,7,2,11,0.00
2013-5-31,89.0,73.6,55.9,47.4,41.9,36.2,55,34,20,30.04,29.96,5,1,11,0.00
2013-6-1,94.3,80.5,66.1,49.5,41.6,31.1,44,26,17,29.96,29.81,8,1,11,0.00
2013-6-2,95.9,80.4,66.3,53.6,46.0,38.1,45,31,15,29.81,29.70,7,1,8,0.00
2013-6-3,94.0,79.9,68.8,56.6,48.0,40.7,57,34,19,29.82,29.70,4,1,10,0.00
2013-6-4,89.7,75.9,66.0,57.0,53.3,49.6,62,47,28,29.92,29.80,4,0,10,0.00
2013-6-5,91.6,75.4,56.2,60.7,55.5,48.1,79,53,29,30.00,29.91,4,0,5,0.00
2013-6-6,94.0,79.5,64.3,61.0,57.6,54.4,76,50,27,29.93,29.85,5,1,7,0.00
2013-6-7,103.8,85.9,70.1,60.6,51.0,42.8,64,33,16,29.90,29.78,5,1,7,0.00
2013-6-8,106.2,91.5,77.6,59.3,52.0,42.6,40,27,17,29.78,29.68,6,1,10,0.00
2013-6-9,91.8,78.2,61.3,58.9,54.2,50.1,67,45,28,29.88,29.70,5,1,10,0.00
2013-6-10,71.8,62.3,53.9,53.9,50.8,47.9,82,67,47,30.03,29.82,4,0,10,0.00
2013-6-11,87.6,72.0,56.0,53.4,50.0,47.0,81,49,27,30.03,29.93,5,1,9,0.00
2013-6-12,89.3,73.1,60.5,53.6,45.4,35.9,71,42,17,30.00,29.92,7,1,9,0.00
2013-6-13,84.1,69.9,55.4,45.8,36.1,27.1,51,31,15,30.12,29.97,5,1,7,0.00
2013-6-14,90.1,73.6,58.7,44.4,36.3,26.2,42,27,15,30.05,29.88,5,1,8,0.00
2013-6-15,92.9,75.8,60.4,48.0,38.7,22.9,52,30,8,29.98,29.86,6,1,8,0.00
2013-6-16,91.8,76.4,60.9,47.1,39.3,33.4,45,28,15,30.08,29.97,9,2,14,0.00
2013-6-17,89.9,73.7,59.9,49.7,43.4,37.2,67,37,17,30.08,30.00,6,2,9,0.00
2013-6-18,78.8,64.8,52.0,50.6,45.7,38.6,83,54,27,30.02,29.97,3,1,7,0.00
2013-6-19,77.7,62.8,47.1,45.3,38.2,26.0,84,46,17,30.10,30.00,5,1,7,0.00
2013-6-20,84.1,68.4,53.2,41.4,36.4,31.1,50,33,17,30.05,29.99,4,1,9,0.00
2013-6-21,87.4,72.4,57.8,44.4,38.4,34.3,44,31,18,30.01,29.95,6,2,12,0.00
2013-6-22,91.8,77.1,62.7,44.4,39.5,28.9,47,28,14,29.96,29.86,4,1,10,0.00
2013-6-23,77.6,66.2,59.0,57.9,49.1,37.8,82,55,34,29.92,29.80,7,2,10,0.00
2013-6-24,60.5,57.6,54.5,57.6,54.8,52.8,96,90,82,30.03,29.83,5,0,10,0.84
2013-6-25,66.0,60.6,55.0,64.5,59.3,53.9,96,95,93,30.10,30.00,5,1,8,0.66
2013-6-26,85.5,72.4,60.4,67.7,61.4,55.4,96,71,43,30.12,30.05,2,0,5,0.00
2013-6-27,93.2,78.7,63.9,66.0,60.4,55.2,86,57,29,30.13,30.06,4,0,7,0.00
2013-6-28,99.7,84.8,70.3,61.5,54.6,45.3,65,39,17,30.08,29.95,6,0,7,0.00
2013-6-29,105.1,87.8,73.2,63.1,54.6,48.0,50,34,17,29.97,29.84,9,2,11,0.00
2013-6-30,104.9,88.9,74.9,63.4,55.3,46.3,50,34,15,29.86,29.79,3,0,9,0.00
2013-7-1,104.6,89.2,76.1,64.2,56.2,47.5,48,35,17,29.88,29.79,6,1,7,0.00
2013-7-2,106.0,91.3,78.1,65.3,58.3,50.4,53,34,22,29.91,29.82,7,1,10,0.00
2013-7-3,103.8,89.1,76.0,65.9,60.0,53.2,64,40,21,29.91,29.78,5,0,6,0.00
2013-7-4,103.3,87.7,78.3,67.0,60.1,51.1,55,41,19,29.78,29.70,6,1,11,0.00
2013-7-5,94.7,81.6,67.4,56.7,49.7,41.4,58,35,18,29.76,29.66,6,1,10,0.00
2013-7-6,95.1,78.5,66.1,53.7,48.0,36.8,56,37,16,29.81,29.73,7,2,9,0.00
2013-7-7,98.0,81.8,66.3,50.3,45.6,38.2,55,31,15,29.86,29.78,7,1,11,0.00
2013-7-8,98.2,81.2,68.1,53.8,45.8,38.4,51,32,13,30.00,29.85,7,1,11,0.00
2013-7-9,102.3,84.6,69.4,46.7,40.0,34.2,43,23,10,30.07,29.98,7,2,9,0.00
2013-7-10,101.2,85.4,73.0,46.6,39.5,34.3,27,20,13,29.98,29.90,9,3,12,0.00
2013-7-11,96.8,79.8,67.8,46.8,37.7,29.4,41,24,11,29.94,29.89,7,2,11,0.00
2013-7-12,95.4,77.9,65.0,43.3,39.0,34.9,37,26,13,29.96,29.89,8,2,11,0.00
2013-7-13,98.2,81.4,65.6,44.1,39.9,34.4,37,24,11,29.99,29.91,6,2,10,0.00
2013-7-14,97.1,82.5,68.1,50.5,44.3,40.8,41,28,15,30.00,29.90,8,2,10,0.00
2013-7-15,94.3,81.0,68.1,50.9,42.9,34.3,42,27,17,29.89,29.82,5,1,9,0.00
2013-7-16,90.3,75.2,62.1,49.9,41.5,28.2,55,32,16,30.03,29.84,5,1,7,0.00
2013-7-17,93.8,77.0,60.5,50.0,42.9,38.0,58,32,15,30.11,30.02,7,1,10,0.00
2013-7-18,96.8,81.0,66.4,46.4,40.8,23.4,44,26,13,30.07,29.95,6,0,9,0.00
2013-7-19,99.9,84.2,70.1,49.2,45.2,39.7,41,27,13,29.95,29.83,2,0,9,0.00
2013-7-20,102.3,86.0,73.0,53.7,49.7,45.9,42,30,15,29.85,29.73,5,1,9,0.00
2013-7-21,102.0,86.4,72.5,58.3,50.3,37.5,49,31,14,29.90,29.75,9,2,12,0.00
2013-7-22,94.0,80.0,70.1,52.0,42.9,35.6,48,28,17,30.01,29.88,10,1,14,0.00
2013-7-23,95.6,80.4,66.9,50.1,44.1,33.6,39,29,17,30.05,29.90,10,1,12,0.00
2013-7-24,98.7,84.0,70.1,55.8,51.5,45.0,49,34,20,30.00,29.92,5,1,9,0.00
2013-7-25,100.2,86.0,73.5,57.1,54.9,50.5,53,37,20,30.00,29.92,5,1,9,0.00
2013-7-26,99.4,86.2,75.8,59.8,54.0,48.4,51,36,18,30.06,29.97,6,2,9,0.00
2013-7-27,99.0,87.2,73.5,55.6,50.7,42.8,49,31,16,30.00,29.86,4,0,10,0.00
2013-7-28,96.6,82.1,68.1,55.4,49.5,36.5,51,34,18,29.87,29.79,9,2,11,0.00
2013-7-29,90.5,75.9,67.3,51.3,45.9,38.9,53,36,17,30.02,29.81,6,1,9,0.00
2013-7-30,93.4,78.0,64.0,46.8,42.8,38.3,44,30,17,30.11,30.01,7,2,10,0.00
2013-7-31,94.5,79.4,66.3,49.6,41.9,33.2,45,28,14,30.08,29.99,6,1,6,0.00
2013-8-1,88.4,73.5,59.5,45.0,40.2,35.8,55,32,18,30.07,29.99,5,0,6,0.00
2013-8-2,92.1,76.2,62.3,42.0,36.4,27.9,36,25,15,30.00,29.92,4,1,9,0.00
2013-8-3,93.6,77.7,63.9,44.4,40.4,36.0,41,28,14,29.99,29.93,5,1,9,0.00
2013-8-4,92.9,77.7,65.2,45.0,41.8,37.6,42,30,15,30.00,29.94,6,2,9,0.00
2013-8-5,92.3,76.5,65.6,47.8,41.9,38.1,41,30,16,30.03,29.96,6,1,9,0.00
2013-8-6,90.1,75.7,64.8,49.1,43.9,39.0,54,34,18,30.02,29.96,5,1,9,0.00
2013-8-7,83.6,68.3,54.2,54.9,50.6,45.4,86,56,27,30.11,30.02,4,1,9,0.00
2013-8-8,83.4,68.5,56.7,52.3,46.7,40.7,76,48,23,30.07,29.97,6,1,9,0.00
2013-8-9,83.8,70.1,59.8,49.7,46.1,41.4,60,44,26,30.01,29.93,4,1,11,0.00
2013-8-10,85.7,71.5,59.6,51.8,45.3,39.7,61,41,20,30.07,30.01,7,2,9,0.00
2013-8-11,89.7,74.7,62.3,48.9,44.1,40.0,56,35,19,30.05,29.96,5,1,7,0.00
2013-8-12,91.8,76.2,63.1,47.7,41.9,36.3,49,31,16,30.03,29.97,6,2,9,0.00
2013-8-13,95.4,78.9,64.7,46.0,40.8,36.2,43,27,13,30.04,29.95,8,2,10,0.00
2013-8-14,94.5,79.1,67.3,46.0,40.1,33.8,36,26,13,30.00,29.94,6,2,8,0.00
2013-8-15,94.7,80.4,67.8,48.8,40.8,33.5,41,26,13,29.99,29.92,6,2,10,0.00
2013-8-16,97.3,80.5,67.8,50.6,39.0,29.9,44,25,10,30.03,29.96,7,2,9,0.00
2013-8-17,94.5,80.3,67.6,55.6,44.2,30.5,52,30,13,30.02,29.89,6,2,7,0.00
2013-8-18,97.3,81.5,70.9,52.0,46.1,40.9,44,30,18,29.95,29.86,2,0,6,0.00
2013-8-19,95.1,85.3,76.5,57.0,49.5,41.9,38,30,17,29.95,29.84,5,1,8,0.00
2013-8-20,97.1,83.7,72.5,58.6,53.8,49.4,56,37,21,29.90,29.82,5,1,7,0.00
2013-8-21,90.1,78.4,68.9,57.7,50.0,40.8,65,40,20,29.94,29.85,4,0,7,0.00
2013-8-22,92.9,77.9,67.6,53.4,45.4,37.2,52,34,17,29.96,29.90,6,0,7,0.00
2013-8-23,89.0,74.8,64.7,50.1,42.9,39.0,45,33,19,29.94,29.84,4,0,8,0.00
2013-8-24,88.6,74.0,64.5,51.6,45.3,41.1,58,38,21,29.92,29.85,7,2,9,0.00
2013-8-25,84.3,71.7,60.7,57.2,50.1,44.7,69,48,27,30.01,29.89,6,1,9,0.00
2013-8-26,86.5,72.3,59.0,54.8,50.0,44.2,74,49,27,30.05,29.96,4,1,7,0.00
2013-8-27,89.3,76.4,64.3,49.4,45.8,40.5,53,36,19,29.96,29.86,6,2,10,0.00
2013-8-28,90.3,77.1,65.8,51.1,44.3,36.5,49,33,18,29.96,29.86,6,1,7,0.00
2013-8-29,89.7,76.9,65.5,49.3,44.8,39.7,50,34,20,30.08,29.96,6,2,8,0.00
2013-8-30,93.6,77.3,67.3,46.8,42.9,38.7,42,31,15,30.09,29.98,5,1,9,0.00
2013-8-31,94.5,79.8,68.9,47.4,42.5,36.4,39,28,15,30.01,29.92,6,2,10,0.00
2013-9-1,90.3,76.7,67.4,52.3,45.5,35.5,47,34,19,29.98,29.91,8,1,11,0.00
2013-9-2,70.8,66.3,59.5,66.0,58.9,47.0,95,80,43,30.05,29.91,6,1,10,0.39
2013-9-3,82.4,69.8,62.4,62.9,56.5,47.2,93,66,39,30.04,29.99,2,0,5,0.01
2013-9-4,85.1,71.3,60.7,58.5,51.7,42.7,80,53,30,30.07,29.99,4,0,10,0.00
2013-9-5,82.6,69.9,57.3,53.2,45.9,38.2,74,45,21,30.06,29.95,8,2,11,0.00
2013-9-6,88.2,73.8,61.0,48.6,41.3,37.2,50,33,19,30.05,29.92,5,1,9,0.00
2013-9-7,92.1,78.8,66.4,49.6,44.3,41.4,46,31,19,29.96,29.89,6,1,7,0.00
2013-9-8,95.1,80.6,67.8,46.4,41.0,33.0,44,26,14,29.93,29.83,6,2,8,0.00
2013-9-9,95.6,82.1,71.3,45.8,41.2,35.6,32,24,16,29.85,29.74,4,1,9,0.00
2013-9-10,92.3,79.3,66.0,53.2,44.1,32.7,58,31,17,29.90,29.74,6,0,7,0.00
2013-9-11,85.1,69.8,61.0,55.1,51.1,43.3,70,54,24,30.03,29.89,4,1,6,0.00
2013-9-12,84.0,72.8,61.8,53.1,49.8,44.9,68,46,27,30.04,29.92,5,1,11,0.00
2013-9-13,85.9,76.3,67.1,56.8,54.0,50.3,62,47,34,29.94,29.78,5,0,11,0.00
2013-9-14,88.6,77.3,68.9,56.9,54.5,51.8,62,47,31,29.83,29.76,4,0,7,0.00
2013-9-15,85.9,72.8,61.3,54.0,44.6,32.5,68,40,16,29.89,29.76,7,2,12,0.00
2013-9-16,84.3,71.0,61.2,50.8,43.2,35.1,60,38,22,29.95,29.83,6,1,10,0.00
2013-9-17,74.6,65.0,55.7,50.6,47.3,42.9,75,54,38,29.96,29.82,4,1,10,0.00
2013-9-18,78.8,67.0,55.4,45.6,40.1,34.3,62,39,25,29.98,29.90,3,1,11,0.00
2013-9-19,85.9,71.9,57.8,40.2,37.3,33.1,44,30,17,29.94,29.83,6,1,11,0.00
2013-9-20,82.4,71.0,60.9,54.8,38.4,27.9,80,33,16,29.91,29.80,7,2,9,0.00
2013-9-21,59.6,53.2,46.5,56.6,51.2,45.4,96,93,80,30.00,29.87,7,2,11,0.96
2013-9-22,66.3,55.2,45.7,50.2,46.6,43.5,96,74,51,30.10,29.99,7,2,9,0.01
2013-9-23,75.1,63.1,52.2,52.9,48.3,43.9,79,60,41,30.10,30.03,4,1,8,0.00
2013-9-24,73.9,62.6,53.5,53.9,49.7,42.9,82,64,40,30.04,29.92,7,2,9,0.00
2013-9-25,63.5,54.5,48.6,48.4,39.5,27.2,93,61,30,29.99,29.90,4,1,14,0.00
2013-9-26,70.8,58.2,46.0,37.5,29.6,24.4,57,35,22,30.07,29.89,9,3,14,0.00
2013-9-27,71.5,60.1,49.6,37.6,32.3,28.1,49,36,24,30.18,30.07,8,2,12,0.00
2013-9-28,77.6,64.0,52.3,41.3,36.1,31.7,57,38,21,30.20,30.11,7,2,10,0.00
2013-9-29,74.0,62.7,54.5,53.8,46.2,35.1,83,56,35,30.19,30.11,5,1,7,0.00
2013-9-30,71.3,61.7,56.2,57.9,54.3,52.7,91,78,54,30.18,30.04,2,0,5,0.00
2013-10-1,73.3,61.7,53.1,53.0,49.5,45.4,86,66,44,30.07,30.00,5,1,6,0.00
2013-10-2,71.5,61.1,54.4,48.5,41.4,33.3,74,51,25,30.07,29.98,3,0,7,0.00
2013-10-3,73.9,58.9,48.0,38.5,28.8,13.5,61,36,13,30.14,30.00,11,2,17,0.00
2013-10-4,77.6,65.6,57.2,22.4,17.1,10.1,22,16,9,30.20,30.05,14,8,26,0.00
2013-10-5,77.0,65.3,56.6,26.9,20.8,11.7,26,18,13,30.30,30.19,9,4,16,0.00
2013-10-6,80.9,67.2,56.2,30.9,25.2,18.2,31,21,11,30.25,30.10,8,3,13,0.00
2013-10-7,79.2,67.0,57.8,28.8,23.5,18.4,27,20,11,30.09,29.96,8,2,13,0.00
2013-10-8,71.5,61.3,54.4,35.1,28.5,21.3,44,30,19,29.96,29.74,5,2,9,0.00
2013-10-9,66.0,57.4,48.2,39.8,35.3,31.5,70,44,30,29.84,29.64,11,2,12,0.01
2013-10-10,65.8,54.9,46.5,43.1,39.0,34.3,68,56,41,30.11,29.84,5,1,11,0.00
2013-10-11,68.9,57.5,48.3,41.9,39.5,37.2,71,53,33,30.17,30.07,5,2,11,0.00
2013-10-12,69.6,58.6,50.1,41.2,38.0,35.2,62,48,31,30.10,29.96,4,1,9,0.00
2013-10-13,67.4,57.5,48.9,42.8,38.7,32.4,71,51,33,30.15,29.97,9,2,12,0.00
2013-10-14,70.6,60.6,52.2,36.0,31.7,26.0,47,34,24,30.23,30.11,8,2,12,0.00
2013-10-15,73.5,63.8,55.0,34.3,26.1,16.7,42,25,17,30.15,30.06,9,4,17,0.00
2013-10-16,76.5,63.6,53.6,34.9,25.8,14.5,36,24,18,30.21,30.07,8,3,11,0.00
2013-10-17,74.6,63.1,54.1,33.4,29.8,23.7,43,29,16,30.18,30.06,5,1,9,0.00
2013-10-18,76.3,65.3,55.1,34.5,29.1,21.2,35,26,19,30.15,30.06,6,1,9,0.00
2013-10-19,79.4,66.8,57.6,33.7,29.9,26.5,35,26,15,30.18,30.10,7,2,10,0.00
2013-10-20,76.7,66.0,58.4,36.5,32.6,28.0,38,29,20,30.10,30.00,6,1,10,0.00
2013-10-21,76.8,66.5,59.0,37.0,34.1,29.1,39,30,23,30.08,30.00,4,0,6,0.00
2013-10-22,82.6,68.4,59.8,33.1,26.2,19.3,33,21,11,30.11,30.00,7,3,11,0.00
2013-10-23,79.6,68.1,60.2,28.2,23.2,18.4,23,18,13,30.04,29.95,3,1,9,0.00
2013-10-24,76.1,65.4,58.7,37.4,28.2,21.6,38,25,17,30.13,29.99,4,1,9,0.00
2013-10-25,76.0,64.2,55.9,36.4,28.1,19.2,38,26,17,30.25,30.12,4,1,7,0.00
2013-10-26,76.8,64.5,53.5,35.6,30.2,23.5,38,28,19,30.25,30.09,5,1,7,0.00
2013-10-27,74.2,59.5,42.9,42.2,32.4,23.1,92,41,20,30.09,29.66,8,3,13,0.24
2013-10-28,49.1,44.6,40.3,46.9,42.1,39.0,96,91,79,29.97,29.64,9,2,13,0.03
2013-10-29,52.6,47.7,42.2,45.4,42.4,39.2,92,82,70,30.17,29.97,5,1,7,0.00
2013-10-30,58.1,48.3,39.6,40.1,37.5,34.2,91,68,46,30.27,30.16,7,2,7,0.00
2013-10-31,65.3,52.9,43.1,42.3,39.4,34.8,79,61,38,30.30,30.21,6,2,7,0.00
2013-11-1,72.8,59.2,49.1,41.6,35.5,29.6,65,43,22,30.29,30.13,6,2,8,0.00
2013-11-2,70.1,59.3,51.4,42.8,36.2,28.4,59,43,27,30.13,29.98,8,2,10,0.00
2013-11-3,57.3,50.5,44.5,42.7,34.3,24.4,82,56,30,30.08,29.98,5,1,10,0.00
2013-11-4,63.2,52.1,43.3,31.4,23.2,14.8,61,34,21,30.16,29.97,6,3,13,0.00
2013-11-5,63.4,53.5,46.0,31.2,24.2,14.2,49,32,23,30.35,30.16,5,1,13,0.00
2013-11-6,65.8,56.3,47.9,36.6,32.7,30.2,53,42,27,30.39,30.28,8,2,10,0.00
2013-11-7,72.7,60.1,53.5,36.6,28.6,21.4,47,32,15,30.29,30.16,7,3,9,0.00
2013-11-8,72.0,59.3,51.9,35.4,28.8,20.0,47,32,22,30.18,30.07,6,2,9,0.00
2013-11-9,70.4,59.4,51.1,39.0,34.3,32.1,52,40,26,30.14,30.07,6,2,8,0.00
2013-11-10,72.5,60.9,52.9,33.3,28.8,21.9,44,30,18,30.20,30.12,11,3,15,0.00
2013-11-11,69.9,60.9,54.2,29.0,22.8,14.7,31,23,15,30.29,30.17,11,3,13,0.00
2013-11-12,69.9,61.9,55.4,35.7,28.4,20.3,41,29,20,30.37,30.23,9,1,10,0.00
2013-11-13,73.2,62.5,56.0,37.9,34.0,30.5,45,35,25,30.32,30.14,7,1,9,0.00
2013-11-14,68.9,58.0,50.7,41.8,36.1,29.4,65,45,28,30.18,29.90,9,1,11,0.00
2013-11-15,59.9,51.4,45.5,40.2,34.5,27.3,76,54,31,29.91,29.80,5,1,12,0.00
2013-11-16,58.7,49.4,43.6,36.9,33.7,31.3,66,55,39,30.03,29.84,7,2,12,0.00
2013-11-17,59.8,49.9,43.2,40.5,35.5,32.4,68,59,38,30.19,30.03,6,2,9,0.00
2013-11-18,61.5,50.5,44.5,42.1,38.8,35.5,81,65,42,30.26,30.16,7,2,9,0.00
2013-11-19,53.8,48.6,43.6,49.1,46.1,40.9,96,91,80,30.22,30.07,7,2,8,0.68
2013-11-20,51.1,49.1,46.4,51.1,49.0,46.4,100,99,96,30.07,29.96,5,2,11,0.79
2013-11-21,55.3,48.1,43.1,46.4,32.8,17.0,100,61,30,30.14,29.99,16,4,20,0.01
2013-11-22,63.1,52.5,42.9,18.5,11.4,4.7,31,20,12,30.18,30.07,11,2,16,0.00
2013-11-23,59.3,50.5,44.2,37.7,27.0,8.4,71,44,17,30.23,30.07,8,1,11,0.00
2013-11-24,56.0,47.1,40.6,39.6,34.4,26.3,76,62,47,30.37,30.23,4,1,6,0.00
2013-11-25,58.9,48.6,41.1,39.7,35.7,29.8,76,62,36,30.45,30.37,4,1,6,0.00
2013-11-26,59.6,51.6,44.8,41.4,37.8,34.6,74,60,42,30.39,30.17,7,2,8,0.00
2013-11-27,64.8,55.5,48.9,37.3,32.4,28.6,62,42,29,30.16,29.98,9,3,12,0.00
2013-11-28,64.7,54.4,48.5,36.9,33.8,31.2,60,46,31,30.19,29.99,8,3,10,0.00
2013-11-29,63.5,53.0,46.8,38.5,35.2,31.1,63,52,31,30.32,30.18,7,2,8,0.00
2013-11-30,60.7,52.7,47.3,38.8,36.0,31.7,65,53,40,30.38,30.29,7,2,8,0.00
2013-12-1,62.6,53.7,45.5,40.7,36.9,31.5,65,54,34,30.45,30.32,7,1,7,0.00
2013-12-2,62.7,53.0,47.6,43.0,37.9,31.2,81,58,41,30.33,29.99,7,2,11,0.00
2013-12-3,48.6,41.1,33.5,46.2,31.3,13.5,100,71,41,30.03,29.89,8,2,11,0.04
2013-12-4,43.5,35.1,30.1,20.4,15.7,10.5,61,46,28,30.19,30.02,5,2,11,0.00
2013-12-5,42.5,33.4,27.8,18.5,14.4,11.2,59,46,29,30.29,30.18,6,2,11,0.00
2013-12-6,40.9,32.7,27.5,30.7,22.3,16.0,100,67,44,30.33,30.02,7,4,12,0.00
2013-12-7,33.4,29.7,23.9,32.5,27.4,20.3,100,91,77,30.39,30.01,5,1,10,0.12
2013-12-8,36.2,27.7,21.6,26.6,21.1,15.4,86,76,55,30.45,30.38,8,3,10,0.15
2013-12-9,39.1,33.1,26.0,26.5,20.6,10.3,80,61,41,30.59,30.42,11,2,11,0.11
2013-12-10,47.0,38.3,31.0,29.0,23.4,9.4,78,57,28,30.59,30.34,6,1,6,0.05
2013-12-11,53.2,44.6,36.0,31.8,27.5,23.1,69,52,38,30.38,30.33,7,1,9,0.01
2013-12-12,59.0,47.6,41.5,28.9,22.6,14.9,54,38,18,30.40,30.29,10,3,12,0.00
2013-12-13,55.4,47.4,39.5,28.5,22.4,12.8,52,38,25,30.43,30.33,7,2,10,0.00
2013-12-14,58.4,48.1,39.6,34.8,27.9,22.0,66,46,28,30.52,30.43,5,1,7,0.00
2013-12-15,62.4,53.0,46.2,33.6,26.7,19.3,50,37,20,30.50,30.36,4,1,6,0.00
2013-12-16,69.1,58.2,50.8,38.0,30.4,22.2,47,35,24,30.36,30.24,9,2,12,0.00
2013-12-17,70.8,60.8,55.4,35.4,27.2,20.7,43,28,18,30.29,30.12,9,3,10,0.00
2013-12-18,68.3,54.8,46.5,38.1,30.5,21.8,68,42,26,30.12,29.78,9,2,12,0.00
2013-12-19,56.9,46.1,40.5,37.3,27.3,15.7,87,51,28,29.98,29.77,8,2,15,0.00
2013-12-20,54.7,45.3,37.6,25.4,16.5,8.7,44,32,19,30.13,29.97,8,2,11,0.00
2013-12-21,55.9,48.4,41.2,35.9,31.5,23.1,68,52,39,30.21,30.06,5,1,10,0.00
2013-12-22,57.8,49.9,39.8,38.2,33.0,26.3,69,52,41,30.41,30.20,4,1,10,0.00
2013-12-23,61.8,52.5,45.2,37.7,33.9,30.7,60,50,33,30.52,30.39,7,2,9,0.00
2013-12-24,65.2,55.8,48.9,39.4,31.7,15.9,58,41,20,30.44,30.32,4,0,5,0.00
2013-12-25,64.7,55.5,47.0,35.8,25.4,13.7,64,32,20,30.42,30.33,5,1,7,0.00
2013-12-26,67.3,56.6,49.8,30.7,22.4,14.4,37,27,17,30.39,30.31,4,1,7,0.00
2013-12-27,64.0,54.8,48.5,34.1,23.4,13.9,46,30,19,30.36,30.21,9,3,12,0.00
2013-12-28,68.9,55.3,45.5,27.9,17.0,12.5,35,22,12,30.24,30.13,7,3,11,0.00
2013-12-29,57.8,51.7,44.9,29.2,20.9,12.1,44,30,21,30.32,30.17,6,1,10,0.00
2013-12-30,63.9,53.8,47.4,26.6,20.7,14.4,37,28,17,30.37,30.31,9,2,11,0.00
2013-12-31,62.9,53.6,47.6,28.6,22.2,15.7,37,30,17,30.38,30.26,6,2,7,0.00
2014-1-1,63.1,53.1,46.7,33.0,26.7,18.4,52,37,25,30.32,30.23,8,1,9,0.00
2014-1-2,66.4,55.8,49.4,36.8,33.1,28.4,51,43,26,30.29,30.15,9,2,11,0.00